Location: *
(50.2903°S, 172.5375°W)
Time: 11:45:06
(UTC+00:00)

ATLAS 5 CENTAUR R/B - Pass Details

Date: 17 November 2019
Orbit: 563 x 1096 km, 63.3° (Epoch: 29 November)

Event Time Altitude Azimuth Distance (km) Brightness Sun altitude
Rises 14:17:31 0° 231° (SW) 3,640 5.5 -9.9°
Reaches altitude 10° 14:20:37 10° 220° (SW) 2,601 4.8 -9.6°
Maximum altitude 14:25:48 29° 160° (SSE) 1,474 4.3 -9.0°
Drops below altitude 10° 14:30:21 10° 100° (E) 2,269 5.4 -8.5°
Sets 14:32:52 0° 88° (E) 3,103 5.9 -8.2°
